Wind_Speed
24 24 25 26 26 25 22 24 31 35 36 36 37 38 39 39 40 41 42 41 40 37 35 33 31 30 29 28 28 28 27 27 27 27 27 25 23 21 19 18 17 16 16 15 15 15 15 15 15 15 15 16 16 16 17 18 19 19 19 20 19 18 17 17 17 16 15 15 14 14 13 12 12 12 12 12 12 10 7 5 4 4 4 3 3 3 4 4
24 23 23 23 25 26 25 23 26 31 34 36 37 37 37 38 38 39 39 37 34 31 30 29 28 26 26 26 26 26 26 24 24 24 24 22 20 19 17 16 15 15 15 15 16 17 18 18 18 17 17 17 17 17 18 18 19 19 19 19 18 17 16 15 15 14 14 13 13 12 12 11 11 11 11 12 13 12 10 6 5 4 4 4 3 3 4 5
23 23 22 22 23 26 28 26 25 28 31 34 36 36 36 36 36 36 34 32 29 28 28 28 27 25 25 25 25 25 25 22 21 21 21 20 18 17 16 15 15 15 16 17 19 20 21 21 20 19 18 17 17 17 17 16 17 17 17 16 16 15 13 13 12 12 11 10 9 10 10 10 10 10 11 11 11 11 11 9 6 5 5 4 4 4 5 5
22 22 22 22 22 24 28 29 27 27 30 32 33 34 35 35 34 32 29 27 26 26 27 26 25 24 24 25 25 24 22 21 19 19 19 18 18 16 16 16 16 17 18 20 21 22 22 22 20 19 18 16 16 15 15 15 16 16 15 14 13 13 11 11 10 9 8 7 7 7 7 7 8 8 9 9 10 10 10 10 8 7 6 6 5 5 5 6
20 22 22 22 23 23 25 29 30 30 30 31 31 31 33 34 31 27 24 23 23 23 23 23 23 23 24 24 23 22 20 19 19 19 18 18 17 17 16 17 18 19 20 22 23 22 22 21 19 18 16 14 14 14 14 15 15 14 13 12 12 11 10 9 8 7 6 6 6 5 5 5 5 6 7 8 9 9 10 10 10 9 8 8 7 6 6 7
19 21 22 22 23 23 24 27 30 31 31 30 29 30 30 30 27 23 21 20 20 21 22 23 24 24 23 22 21 20 19 17 17 17 18 18 17 17 18 18 19 20 21 23 23 21 20 19 18 16 14 13 12 13 14 14 13 12 11 11 10 9 7 6 5 4 4 4 4 4 5 5 5 6 7 8 9 10 10 10 10 10 8 8 8 8 7 7
17 19 21 22 23 24 25 26 28 29 30 30 29 29 28 26 23 21 19 18 18 20 22 24 24 24 22 21 19 18 17 16 16 16 17 17 17 18 19 20 20 21 22 22 21 20 19 18 16 15 13 12 12 12 12 11 10 10 9 8 7 5 4 3 2 2 3 3 4 5 5 5 6 7 7 8 9 10 10 10 10 10 9 8 7 8 9 9
16 18 20 21 23 24 25 26 27 28 29 29 29 28 26 23 21 19 16 16 17 19 21 22 22 21 19 18 17 15 14 14 15 15 15 15 16 17 19 20 21 22 22 21 19 18 17 16 15 14 12 12 11 10 9 8 8 7 6 5 3 2 2 2 3 3 4 4 5 5 6 6 6 7 8 8 9 9 10 10 10 10 9 9 8 8 10 10
15 17 19 21 22 24 25 26 27 27 28 28 28 26 25 22 20 18 15 15 16 18 19 19 19 17 16 16 15 12 12 13 14 13 13 13 15 17 19 20 20 20 20 19 18 17 16 14 14 13 11 10 9 8 7 6 6 5 4 3 3 2 2 3 3 4 4 5 5 5 6 7 7 8 8 9 9 9 9 9 10 10 10 9 10 10 10 11
15 17 19 21 22 24 25 26 27 27 27 28 28 26 24 22 20 18 16 16 16 16 17 16 16 15 15 14 13 11 11 12 12 12 11 12 14 16 19 19 19 19 18 17 16 16 14 13 12 11 9 8 7 6 6 6 6 6 5 5 4 4 3 3 3 4 4 4 4 5 7 9 9 10 9 10 10 10 10 9 9 9 10 10 10 10 11 12
14 16 18 20 22 24 25 26 27 28 27 26 26 26 24 23 21 20 18 17 17 17 16 16 15 15 14 13 11 11 11 11 11 10 10 12 14 16 18 19 18 18 16 15 14 14 13 12 10 9 8 7 6 5 5 6 7 7 7 8 7 6 5 4 4 4 4 4 6 8 9 10 11 11 11 11 11 11 11 11 10 9 9 10 9 9 10 11
14 15 17 19 22 24 25 26 27 27 27 25 24 24 23 23 22 21 20 19 18 18 17 16 15 15 14 12 11 11 11 10 9 9 10 12 14 16 18 18 17 16 15 14 13 12 11 10 8 7 6 6 5 5 5 6 7 8 8 9 9 9 9 9 9 8 8 8 9 10 10 10 10 11 12 12 13 13 12 12 12 11 10 10 10 9 9 10
14 15 16 18 21 23 25 26 27 27 26 25 23 23 22 22 22 21 21 20 20 19 18 17 16 15 14 12 12 12 11 10 9 9 9 11 14 15 16 17 16 15 14 13 12 11 9 8 7 6 6 5 4 4 4 5 6 7 8 8 9 11 11 12 13 12 12 12 11 12 12 11 12 13 13 13 13 13 13 13 13 13 12 11 11 10 9 9
14 15 16 17 20 22 24 26 27 27 26 25 23 22 22 21 21 21 21 21 21 20 20 19 17 16 14 12 12 12 11 10 9 9 10 11 14 14 15 15 15 14 13 12 10 9 8 6 6 5 5 4 3 3 3 4 4 5 6 7 9 10 11 13 14 13 13 13 13 13 14 14 15 16 15 15 14 14 14 14 14 14 13 13 12 11 10 9
14 15 16 17 19 21 23 25 26 27 26 25 24 23 22 21 21 21 21 21 21 20 20 19 18 18 15 13 13 13 11 11 10 10 11 12 13 14 14 14 14 13 12 11 9 8 6 6 5 4 4 2 2 2 2 2 3 4 5 7 8 9 10 12 13 13 12 12 12 13 13 14 15 16 16 16 16 16 16 16 16 16 15 14 13 11 11 11
13 14 16 17 18 20 22 24 26 27 27 26 24 23 22 22 21 21 21 21 21 20 19 19 18 18 16 15 14 14 13 12 10 10 11 11 13 13 13 13 12 12 11 10 9 7 6 5 5 4 3 2 2 2 2 1 3 4 5 6 8 9 10 11 12 12 11 10 11 11 11 12 13 14 15 16 16 16 17 17 18 18 17 16 15 13 11 10
13 15 16 18 19 20 22 23 24 26 27 26 25 24 23 23 22 22 21 21 21 20 20 19 18 18 17 16 15 14 14 13 11 11 11 11 12 13 13 12 12 11 10 9 8 7 6 6 5 4 3 2 2 2 1 1 2 3 4 5 6 7 8 9 10 10 10 9 10 10 10 11 12 12 13 14 15 16 16 17 18 18 19 18 17 15 13 10
14 15 17 18 20 21 22 23 24 25 26 26 26 25 25 24 23 23 22 22 21 21 20 20 19 19 18 17 16 16 15 14 12 12 11 12 12 12 12 12 11 11 10 9 8 8 7 7 6 5 3 2 2 2 1 1 2 3 5 5 6 6 6 7 8 9 8 9 9 9 9 10 10 11 12 13 14 15 16 17 18 18 19 19 18 16 14 12
15 16 17 19 21 22 24 24 25 25 26 26 26 26 26 25 24 24 23 23 22 21 21 20 20 20 19 19 18 17 17 15 13 13 13 13 13 12 12 12 11 11 10 10 9 9 8 8 7 6 4 3 2 1 0 1 3 4 4 5 6 5 5 6 7 8 8 8 8 8 8 9 9 9 11 12 13 14 15 16 18 18 18 19 19 17 15 14
16 17 18 20 21 23 25 26 26 26 27 27 27 27 26 26 25 25 24 24 23 23 22 22 21 21 20 19 19 18 18 17 15 14 14 14 13 13 12 12 12 12 11 10 10 10 9 9 8 6 4 4 3 2 1 2 3 3 4 4 6 6 5 6 6 7 8 9 9 8 8 8 8 9 10 11 12 13 14 15 17 18 19 19 18 17 15 13
18 18 19 20 22 24 26 27 28 28 28 28 28 28 27 27 26 26 25 25 24 24 23 23 22 22 21 20 20 19 19 18 16 15 15 15 14 13 13 13 12 12 11 11 10 10 10 9 8 7 6 4 3 2 2 3 3 4 5 5 6 7 7 7 7 6 7 9 10 10 9 9 9 9 10 11 11 13 14 15 16 18 19 19 17 15 14 13
19 19 20 21 22 23 26 28 29 30 29 29 29 29 29 28 27 27 26 26 25 25 24 24 23 22 22 21 21 20 20 19 18 17 16 16 15 14 14 13 13 12 11 11 11 10 10 9 8 8 7 5 4 4 4 5 5 5 5 6 6 7 8 10 10 8 7 9 11 11 11 11 11 11 11 11 11 13 14 15 16 17 18 19 16 14 13 13
21 21 21 22 22 23 25 27 29 31 31 30 30 30 30 29 29 28 27 27 26 26 25 24 24 23 23 22 21 21 20 20 19 18 17 16 16 15 14 14 13 13 12 12 11 10 10 9 9 9 8 7 7 7 7 7 7 6 6 7 7 7 7 9 11 11 9 9 11 13 12 11 12 12 11 12 13 13 14 15 17 17 17 18 15 13 14 15
22 22 23 23 24 24 24 26 29 31 32 32 31 31 31 30 30 29 28 28 27 26 26 25 25 24 23 23 22 21 21 20 20 19 18 17 17 16 16 15 14 14 14 13 12 11 10 10 11 11 10 9 9 9 9 9 8 8 8 8 9 9 9 9 10 12 12 11 11 14 15 13 12 13 13 14 14 14 14 17 18 18 17 17 15 14 16 18
23 24 25 25 25 25 25 26 27 30 31 32 32 32 32 31 31 30 30 29 29 28 27 26 25 25 24 23 22 22 21 21 21 20 19 18 18 17 17 16 15 15 15 14 13 12 12 12 12 12 12 11 11 10 10 10 9 9 9 9 9 10 11 11 11 12 13 13 12 13 16 16 14 14 15 16 16 15 15 17 18 18 18 17 15 15 18 19
24 25 26 27 27 26 26 26 26 28 30 32 33 33 32 32 32 32 31 31 30 30 29 28 27 26 25 24 23 23 23 22 22 22 21 20 19 18 18 17 17 16 16 15 15 14 13 13 13 13 13 12 12 12 11 10 9 9 10 10 10 10 11 11 12 13 14 14 14 14 16 17 17 16 16 17 17 16 16 16 17 18 18 18 16 16 18 20
25 26 28 29 29 29 28 27 27 27 28 30 32 33 34 34 34 34 33 33 32 31 30 29 28 27 27 26 25 25 25 24 24 23 23 22 21 20 19 18 18 18 18 17 16 16 15 14 14 14 14 13 13 12 12 11 10 10 11 11 12 12 11 12 12 13 15 15 16 17 17 18 18 17 18 19 19 17 16 16 17 18 18 17 16 17 19 20
27 27 28 30 31 31 30 29 29 28 28 29 31 33 34 35 35 35 35 36 35 33 32 31 30 29 28 28 28 27 26 26 25 25 24 24 23 22 21 20 20 20 19 19 18 17 16 16 16 15 15 14 14 13 13 12 12 12 13 13 14 14 14 14 14 14 15 16 17 18 19 19 19 19 18 20 20 19 18 17 17 18 18 18 18 19 20 21
30 29 29 31 32 33 32 31 30 30 30 30 30 32 33 35 37 36 37 38 36 34 33 31 31 30 29 29 29 28 28 27 27 26 26 26 25 24 23 22 22 21 21 20 20 19 19 18 18 17 16 16 16 15 15 15 15 15 16 16 17 17 17 17 17 16 16 17 18 19 21 22 21 21 20 20 21 21 20 19 18 18 18 18 19 20 22 23
33 32 31 31 33 35 35 34 33 32 32 31 32 32 32 34 36 38 40 38 35 34 33 32 31 31 30 30 30 30 29 29 28 28 27 27 27 26 25 24 24 23 23 22 21 21 21 21 20 20 19 19 18 18 18 18 18 19 20 20 20 21 21 20 20 20 18 18 19 20 22 24 24 23 21 21 22 21 21 21 20 19 18 19 20 21 22 24
35 35 34 33 33 35 36 37 36 35 34 34 34 33 34 34 36 39 38 34 34 35 34 33 32 31 31 32 31 31 31 30 30 29 29 28 28 28 27 26 26 25 25 24 23 23 23 23 23 22 22 21 21 21 21 22 22 23 23 24 24 25 25 24 23 23 22 21 21 22 23 25 26 26 24 23 23 23 23 23 22 21 19 19 21 22 22 24
37 37 36 35 35 35 37 39 38 38 38 37 37 36 36 36 38 37 31 30 35 36 34 34 33 32 32 32 32 32 32 31 31 31 31 30 30 29 28 28 27 27 26 26 25 26 26 25 25 24 24 24 24 24 25 25 26 26 27 28 29 29 29 28 27 27 26 24 23 24 25 26 26 27 27 26 26 26 26 25 24 22 21 21 22 23 23 24
40 39 39 38 37 37 38 39 40 41 40 40 40 39 39 41 39 33 29 31 35 34 33 35 35 34 34 33 33 33 33 33 32 32 32 32 31 31 30 29 29 29 28 28 28 28 28 27 27 27 27 27 27 28 29 29 30 30 31 31 32 33 33 33 32 31 29 28 27 27 28 27 27 28 29 29 29 29 29 28 26 24 22 21 22 23 24 25
42 41 41 40 40 40 39 40 41 42 43 43 43 43 44 44 37 31 31 33 33 32 33 34 35 36 36 35 34 34 34 34 34 34 34 34 33 32 32 31 31 30 30 30 30 31 30 29 29 29 30 30 31 32 32 33 34 34 34 35 35 35 36 36 36 35 34 32 30 29 29 28 28 29 30 30 31 31 30 29 28 26 24 21 22 25 27 26
46 44 42 42 42 42 42 42 42 43 45 46 46 48 48 43 36 33 34 33 32 32 33 34 34 36 37 37 37 36 36 36 36 36 36 36 35 34 33 33 33 33 33 33 34 34 34 33 32 33 33 34 34 35 35 36 37 37 37 38 38 38 38 39 39 39 38 37 34 31 30 29 29 30 31 31 31 31 31 30 29 28 25 21 21 27 30 29
48 47 45 44 44 45 44 44 44 44 46 47 50 51 47 41 38 37 36 35 34 33 33 34 34 35 36 37 38 37 38 38 37 37 37 37 37 36 35 35 35 35 35 36 36 36 37 36 35 35 36 36 36 37 37 38 38 39 40 40 40 41 41 42 42 41 41 41 38 34 32 30 30 31 32 31 31 32 31 30 30 29 27 23 22 27 32 31
48 49 48 47 46 47 47 47 47 47 47 49 52 50 44 42 42 41 39 38 37 35 35 35 34 34 35 35 36 37 39 40 39 39 38 38 39 37 36 37 37 37 37 38 38 38 38 38 37 37 38 38 38 39 39 40 40 41 42 42 43 43 43 43 44 43 43 42 40 36 33 30 30 32 33 32 31 31 31 30 30 30 27 24 24 28 32 31
48 49 50 50 49 49 49 49 49 49 49 51 52 47 43 43 44 43 43 42 40 38 38 37 36 35 34 33 33 35 37 38 38 40 40 40 40 38 38 38 39 39 39 39 40 40 40 41 40 39 39 40 40 41 41 42 42 43 43 43 43 43 42 42 42 42 42 42 41 38 34 29 29 32 34 33 31 31 31 31 30 29 27 25 26 29 31 30
50 50 50 51 53 52 51 51 51 52 53 54 52 47 42 42 43 44 46 45 43 42 41 40 38 37 35 34 33 33 35 35 35 37 38 39 39 38 38 40 40 40 40 41 42 41 41 42 42 40 40 41 41 41 41 40 40 40 40 40 39 40 40 39 40 40 39 40 40 39 34 27 27 33 34 32 31 31 31 30 29 29 27 25 27 30 30 30
52 51 50 51 54 55 54 54 54 55 55 55 53 48 44 41 42 44 46 46 46 45 44 43 42 40 38 37 36 35 35 34 34 34 35 35 35 35 36 38 38 38 39 39 39 39 39 40 39 37 37 37 36 36 36 35 36 37 36 37 37 38 38 38 38 37 37 39 38 39 35 23 24 33 33 30 31 31 30 29 30 30 28 26 27 30 30 30
55 54 51 50 53 56 57 58 57 57 57 56 53 50 47 44 43 44 45 46 46 46 46 46 46 44 42 40 39 38 37 36 35 35 33 32 32 32 32 33 34 34 35 34 34 34 34 34 34 32 32 32 31 32 32 33 34 35 35 35 36 37 38 38 38 36 36 38 36 38 35 22 21 31 30 29 30 29 29 30 30 30 28 26 28 30 30 30
57 56 53 51 53 55 58 60 60 59 59 58 55 52 50 47 45 45 46 45 45 45 46 47 47 47 45 44 42 41 41 40 38 37 34 32 32 33 32 32 33 33 34 33 33 34 34 33 33 32 32 32 32 32 32 33 34 35 35 34 35 36 37 37 38 37 36 37 35 36 34 21 18 26 28 28 30 29 30 30 30 30 28 27 29 30 30 30
58 58 56 55 54 56 59 61 62 62 61 59 56 53 52 50 48 48 48 47 45 44 45 46 47 47 47 46 45 44 44 43 42 39 37 35 35 35 34 34 35 35 35 35 35 35 36 35 35 34 34 33 33 33 33 34 34 34 33 33 34 35 35 36 38 37 37 36 32 34 32 19 16 25 27 29 30 30 31 31 30 30 28 28 30 31 30 30
59 59 59 59 58 58 60 61 61 61 61 60 57 55 54 53 52 50 49 48 46 44 44 45 46 47 47 46 46 45 46 46 44 42 41 39 37 37 36 36 37 37 37 37 37 37 37 37 36 35 35 34 33 33 33 33 33 33 32 32 33 33 35 36 36 37 37 34 31 34 30 18 18 26 27 28 31 30 31 32 31 30 28 29 31 31 30 30
62 61 60 61 61 60 60 60 61 61 61 62 61 59 57 56 55 52 50 49 48 47 45 44 45 46 47 47 47 46 46 46 46 45 44 41 39 39 39 38 38 38 38 38 38 38 39 37 36 36 35 34 33 34 33 32 33 32 31 31 32 32 33 34 35 36 35 33 32 33 29 20 20 26 28 29 31 31 32 33 31 29 29 30 31 31 30 29
64 63 62 62 63 63 61 60 61 62 61 62 62 62 60 58 56 53 52 51 50 49 48 46 45 46 47 47 47 46 45 45 46 46 45 42 41 40 40 40 40 39 39 39 39 40 40 38 37 36 35 34 34 34 33 33 33 33 31 31 31 32 33 33 35 34 33 34 33 29 28 26 21 21 26 28 30 33 34 33 31 30 30 31 31 31 30 29
67 66 64 63 64 65 63 62 61 62 61 61 62 62 60 59 57 55 54 54 53 50 49 48 47 46 46 45 46 47 46 46 46 46 45 43 42 41 41 40 40 39 39 40 40 41 40 38 37 37 36 35 35 35 34 33 34 33 32 32 31 32 33 33 33 32 32 36 32 25 28 30 21 18 24 27 31 36 35 32 31 30 31 32 31 31 30 30
68 67 65 65 65 65 65 63 62 61 61 61 61 61 60 60 59 58 55 54 54 52 50 50 49 47 45 43 44 46 47 47 47 46 44 43 43 42 42 41 41 40 40 41 42 42 41 39 38 38 37 36 36 36 35 35 34 33 32 32 32 34 34 33 32 32 33 35 31 26 30 32 24 21 25 29 33 35 32 31 30 30 31 32 32 31 31 31
70 68 67 66 66 66 65 64 64 64 63 63 63 63 62 61 60 59 56 55 56 54 53 52 49 47 45 43 43 46 48 48 47 44 43 44 45 44 43 42 42 42 42 43 43 43 42 40 39 39 38 38 38 38 37 36 36 34 31 31 33 34 35 34 33 33 34 34 31 30 32 28 24 25 28 30 32 31 29 31 30 29 31 32 32 31 31 31
71 69 67 67 67 67 66 65 66 66 66 65 65 64 63 62 60 59 58 57 56 55 54 52 49 46 45 45 46 47 47 47 46 44 45 47 47 47 46 45 45 44 44 44 44 44 43 42 40 40 40 39 39 39 39 38 38 36 31 30 33 35 35 35 34 33 34 33 30 31 32 26 24 28 30 30 31 31 31 31 30 29 31 31 31 31 31 31
71 69 67 68 68 68 68 67 66 67 68 68 67 64 63 61 59 58 57 56 56 55 54 52 49 47 47 49 50 48 45 44 45 47 49 51 50 49 49 48 48 47 46 46 46 45 45 44 42 41 42 41 39 41 41 40 41 38 31 29 34 36 36 36 35 33 34 33 31 32 30 26 26 30 31 30 32 33 32 31 30 30 31 31 31 31 31 31
70 70 68 69 69 69 69 68 68 68 68 68 68 66 63 60 58 57 57 57 57 56 54 51 50 49 50 52 51 48 44 44 47 51 53 54 53 52 52 51 50 50 49 49 49 47 47 46 43 43 45 44 41 42 42 43 44 38 30 30 34 35 36 37 36 35 35 35 34 32 29 28 29 31 31 32 34 33 32 31 30 31 31 30 30 31 31 31
Wind_Direction
73 72 76 83 90 94 101 113 119 120 119 118 118 119 118 117 117 117 116 114 111 110 109 110 111 113 116 117 118 119 120 122 123 123 123 124 124 123 122 122 122 122 123 123 121 117 112 109 104 100 101 107 111 112 109 104 100 97 93 89 85 80 78 76 73 69 65 63 59 56 53 48 44 41 36 34 31 23 9 349 338 333 325 313 303 305 319 329
84 83 84 91 100 107 110 114 120 122 121 121 120 119 119 118 118 118 117 115 113 113 114 114 116 119 120 121 121 120 120 121 122 121 120 121 121 121 120 119 119 119 119 119 118 115 112 107 104 103 104 106 108 107 104 101 99 95 90 87 84 79 75 73 72 68 63 60 58 54 50 46 42 39 35 33 31 28 22 9 356 354 349 337 323 315 322 329
95 95 96 100 106 114 118 119 120 122 121 121 121 121 121 121 121 120 118 117 117 119 119 118 119 121 121 121 120 120 119 119 121 120 119 119 119 120 120 119 120 119 118 118 117 115 112 109 108 109 108 107 107 105 102 100 95 90 86 83 81 78 73 70 68 65 59 55 51 47 42 38 35 33 30 28 28 27 26 23 14 5 359 353 340 329 325 326
104 105 106 108 111 117 122 124 123 122 121 121 122 123 123 123 124 123 122 122 122 122 120 120 121 122 122 121 121 121 121 123 125 124 122 122 122 122 123 123 122 121 121 120 117 114 111 110 111 110 108 108 108 105 101 95 88 84 81 78 77 74 69 66 63 60 53 46 44 38 33 27 22 21 20 20 23 23 24 25 22 14 5 358 352 338 328 324
110 112 114 116 118 121 125 127 126 126 124 124 125 126 127 127 126 126 127 127 126 124 122 122 123 125 125 125 125 126 128 132 134 130 129 129 128 128 128 126 124 123 123 120 116 113 112 112 112 109 108 109 108 103 97 90 85 82 78 75 72 68 65 62 58 53 42 32 32 26 21 13 5 5 4 8 15 19 20 21 21 20 13 2 357 349 335 326
114 117 120 123 126 127 128 130 130 130 130 130 130 131 131 130 128 127 127 126 126 126 126 126 127 129 129 131 133 133 135 138 137 134 133 133 132 131 130 128 125 125 123 118 115 115 115 115 113 110 111 110 104 96 89 85 83 79 75 70 67 63 61 57 49 39 22 9 5 0 356 351 349 351 354 359 6 11 14 15 17 18 16 6 355 349 340 326
120 122 126 130 133 134 134 135 135 134 134 135 135 136 136 135 132 129 127 126 126 128 129 131 133 135 135 137 136 136 139 140 137 136 136 135 134 133 131 129 127 126 123 119 119 120 119 118 115 113 112 106 96 88 82 79 75 72 68 64 61 59 51 40 17 353 337 333 331 332 335 337 341 345 349 356 359 2 5 6 9 11 11 4 351 343 337 328
128 128 132 137 140 141 140 141 141 140 139 139 140 141 141 140 137 135 132 130 131 133 134 135 137 138 139 138 137 139 142 141 138 138 136 136 137 137 134 132 131 129 125 124 125 124 122 119 116 111 107 99 90 82 78 74 68 64 62 58 53 40 9 344 334 330 325 325 319 316 325 330 335 343 348 351 351 352 353 356 358 0 3 359 349 340 336 332
136 136 138 143 146 147 147 147 147 147 146 145 145 146 146 146 146 143 141 139 139 139 139 139 139 141 142 141 139 144 147 143 140 138 137 139 142 141 137 135 135 131 129 130 130 126 122 117 111 106 102 96 88 80 73 67 61 56 53 47 33 15 2 351 346 344 343 342 327 319 331 342 346 347 347 344 344 342 341 346 349 350 354 354 349 342 339 337
144 143 144 148 151 153 153 153 153 153 153 152 151 152 153 154 154 153 150 148 147 147 146 146 146 147 149 145 142 146 149 145 141 139 140 142 144 143 138 137 136 132 131 133 130 124 119 114 109 107 104 95 86 78 67 60 55 50 44 39 33 27 18 11 5 0 2 2 354 351 355 0 0 354 348 344 343 341 337 338 341 344 346 346 345 341 338 339
151 150 151 153 156 158 159 159 159 159 160 160 159 159 159 160 160 160 158 157 155 154 155 155 155 154 154 150 146 149 151 148 144 142 143 144 145 143 139 138 138 135 135 135 130 124 119 115 114 112 107 96 85 72 65 63 55 48 46 46 46 48 51 53 49 38 37 36 29 24 16 7 5 4 359 354 351 346 341 337 336 337 337 337 338 338 334 335
157 156 157 159 161 163 164 165 164 164 165 167 167 166 165 165 165 164 164 163 162 161 162 163 164 162 160 158 153 153 155 153 148 147 148 148 148 147 143 142 141 140 141 139 133 127 123 121 119 113 104 95 82 70 70 70 56 49 51 52 56 62 66 68 67 62 58 51 41 35 28 15 10 14 13 7 1 354 347 342 339 336 332 329 329 332 332 330
163 163 164 166 167 168 168 170 170 170 171 172 174 174 172 171 170 169 168 168 168 168 169 170 171 169 167 165 159 159 162 157 152 154 157 155 155 154 149 147 147 148 146 142 137 130 127 127 124 115 104 90 75 74 81 76 58 52 52 53 59 63 64 65 63 60 56 52 47 39 35 32 27 28 26 20 13 5 358 352 348 343 336 332 328 325 326 326
169 168 170 172 173 174 173 174 176 176 177 178 180 181 180 178 176 175 174 173 172 172 174 174 175 173 172 171 167 167 167 162 160 163 166 164 163 161 157 153 153 153 149 146 142 137 136 136 129 118 105 88 77 93 99 76 59 50 47 49 54 54 54 56 56 55 54 53 51 45 38 35 35 36 37 34 28 23 16 9 1 354 345 340 334 327 321 319
177 175 175 177 179 179 179 179 180 182 183 184 186 187 187 186 184 182 180 179 177 177 178 178 178 177 175 175 174 173 173 172 171 170 172 173 171 168 165 160 159 158 155 154 151 145 149 147 137 127 115 100 89 117 129 80 51 38 35 38 43 44 43 45 48 50 54 55 53 49 41 35 34 36 39 39 37 33 29 24 17 8 359 351 344 336 324 315
189 184 182 182 184 184 184 184 185 186 188 190 192 193 193 191 190 189 187 185 183 181 182 183 183 181 179 179 180 179 180 181 180 178 179 180 177 174 171 168 165 164 163 163 159 157 163 160 152 146 141 130 119 147 163 69 38 25 26 28 33 35 35 36 37 39 44 48 48 46 42 36 33 32 33 34 34 33 30 26 22 17 11 4 356 348 335 321
203 197 191 188 189 189 189 189 190 191 192 194 197 198 198 196 194 193 193 191 189 186 186 187 188 187 185 183 184 185 186 187 186 185 185 185 184 181 177 175 173 171 172 172 169 169 174 175 172 170 172 170 161 166 153 53 24 10 13 23 31 30 31 31 28 27 28 28 31 35 36 33 30 26 24 25 27 27 25 22 18 15 11 7 2 356 348 336
215 208 202 197 194 194 194 195 195 196 197 198 200 201 202 201 198 196 195 195 194 192 191 192 193 192 190 189 190 191 192 192 192 192 191 190 190 187 183 181 180 179 181 180 178 179 183 186 187 190 192 191 180 165 133 19 3 3 1 8 22 26 26 28 24 16 11 12 14 22 26 24 25 21 16 17 19 18 18 18 14 11 7 2 358 356 352 348
221 217 212 207 202 199 198 200 201 201 202 202 204 204 205 204 203 201 199 198 197 196 196 196 197 197 195 194 194 196 195 196 197 198 197 195 193 192 188 187 185 186 188 187 186 189 193 194 195 199 199 202 199 187 235 334 351 357 354 353 359 6 11 17 18 5 357 0 1 8 16 13 16 16 11 11 12 11 10 11 9 5 4 359 354 352 351 351
223 222 220 215 210 205 203 202 204 205 206 207 207 208 207 207 205 204 203 202 200 199 200 200 201 202 201 199 199 199 199 200 201 202 202 199 197 195 194 192 190 191 193 192 193 197 200 200 202 206 209 214 213 209 261 303 317 325 337 342 340 345 352 358 4 359 349 347 346 351 3 4 5 6 4 3 5 5 4 4 3 359 358 356 352 350 349 349
225 224 223 221 217 212 208 206 206 207 209 210 211 211 210 209 208 207 206 206 204 203 203 203 204 206 205 204 204 204 204 204 205 206 206 203 200 199 199 198 195 196 199 200 202 205 207 207 210 216 220 226 233 243 259 277 293 309 323 328 330 336 339 338 344 353 346 337 334 338 348 351 348 352 354 352 354 357 357 357 355 353 354 353 351 351 351 349
227 225 225 224 221 217 214 211 209 209 210 212 214 214 213 212 211 210 209 209 208 207 207 206 207 209 209 208 208 208 208 208 209 210 209 207 205 203 203 203 202 204 207 210 211 213 214 215 221 227 228 235 247 258 265 275 286 296 307 314 322 330 334 329 327 332 335 332 329 328 334 336 335 341 342 338 344 350 348 345 346 348 351 350 349 350 349 345
230 226 226 226 224 222 219 216 213 212 211 212 215 217 217 216 214 213 212 212 211 211 210 210 210 211 212 212 212 211 211 212 212 213 213 211 210 209 209 209 209 212 215 218 219 219 221 225 231 235 237 243 251 262 271 277 281 286 298 308 314 319 323 320 318 319 321 324 322 319 321 325 328 332 331 328 336 344 339 332 337 344 347 347 344 341 338 335
234 230 227 225 226 225 222 220 217 215 214 214 215 218 219 219 219 217 216 215 214 214 213 213 213 214 215 215 215 215 215 216 216 216 216 216 215 215 215 215 215 217 220 223 225 225 228 233 238 241 243 247 253 261 270 275 281 289 300 305 307 310 311 309 309 312 313 315 317 316 315 317 320 324 325 326 331 336 332 327 332 339 341 343 339 330 329 329
237 235 231 227 225 226 225 223 221 219 217 216 217 218 220 222 223 222 221 219 218 217 216 215 216 216 217 217 217 218 219 220 220 220 220 220 220 220 220 221 221 223 225 227 229 231 235 239 243 246 247 249 253 258 264 270 278 288 296 299 301 303 307 309 308 309 310 312 313 312 310 310 313 319 321 322 325 330 329 326 329 333 335 337 334 326 326 327
238 237 235 231 227 226 226 226 224 223 220 219 219 219 221 224 225 226 225 223 221 220 219 218 218 218 219 220 220 221 222 223 223 223 224 224 224 224 224 225 227 228 230 231 233 235 238 242 244 246 248 250 253 256 261 267 275 284 290 293 298 302 304 307 309 308 307 307 307 305 304 307 311 316 318 316 319 325 325 322 324 328 331 332 328 322 322 323
237 237 237 235 231 228 227 228 228 226 224 223 222 222 223 225 227 228 228 227 225 222 222 221 220 220 221 221 222 222 223 224 225 226 227 227 228 228 228 229 231 232 234 235 236 238 240 242 244 245 247 249 251 254 259 265 273 282 287 289 296 301 303 305 309 310 308 306 307 306 304 306 310 313 315 313 314 319 320 320 325 327 329 328 322 318 317 318
237 237 237 236 234 231 229 229 230 229 228 226 225 224 225 226 228 230 231 231 228 224 224 224 223 222 222 223 224 224 225 226 227 227 229 230 230 232 232 233 234 235 237 238 238 239 240 241 243 243 245 248 251 253 258 264 272 281 286 289 293 297 300 304 307 310 311 309 308 308 306 306 308 310 312 311 312 316 319 322 326 326 326 324 317 313 313 314
238 237 236 235 235 234 232 231 231 231 231 230 229 227 227 227 229 230 233 234 231 227 226 226 226 226 225 226 226 227 228 228 229 230 230 232 232 233 234 235 236 237 239 241 241 241 241 241 243 244 246 249 252 256 262 267 273 281 286 289 292 295 298 300 304 307 309 308 308 309 309 308 307 307 309 310 310 313 317 320 323 322 323 322 314 309 310 312
239 238 237 235 235 235 234 233 232 233 233 233 232 231 229 229 230 231 232 233 233 231 228 228 230 230 230 229 230 231 232 231 232 232 233 234 234 235 236 237 238 239 240 241 242 243 244 244 245 246 248 250 255 260 265 270 276 281 286 290 291 293 295 297 301 303 304 304 305 308 309 309 307 307 307 308 308 310 312 315 318 320 323 320 312 307 307 309
239 239 238 236 235 235 235 234 234 234 234 235 235 234 232 232 231 231 232 234 236 235 231 231 232 232 233 232 232 232 234 234 234 235 235 236 237 237 238 239 240 240 241 242 244 245 246 247 248 249 251 254 258 264 268 272 277 282 286 289 290 292 294 295 297 298 299 301 302 303 306 307 307 306 306 308 308 308 309 311 315 319 323 320 310 305 304 306
236 238 239 238 236 235 235 235 235 235 235 236 237 236 235 234 233 232 232 235 238 237 234 233 234 234 235 235 234 234 235 236 237 237 238 238 239 240 240 241 242 243 243 244 245 246 247 249 251 253 255 258 262 267 271 274 278 282 286 288 290 292 293 293 294 294 295 297 299 301 302 303 305 305 307 309 308 308 308 310 313 317 321 319 309 302 301 304
234 236 238 240 239 237 236 235 235 236 236 237 237 237 237 237 235 232 232 234 238 239 237 236 235 235 236 236 236 237 237 238 239 240 240 240 240 241 242 243 245 246 247 247 248 249 250 251 254 256 259 262 266 269 273 276 279 282 285 287 289 291 292 292 292 292 293 294 296 298 299 301 302 303 305 308 308 307 307 309 312 315 319 318 308 301 300 303
234 233 236 238 240 239 237 236 236 236 236 237 238 238 238 238 236 233 233 235 237 239 238 238 237 237 237 237 237 239 239 239 240 241 242 242 242 243 243 245 247 248 249 250 250 252 252 253 256 259 262 265 268 271 274 277 279 281 284 285 287 289 290 291 291 291 292 292 293 295 296 298 300 300 302 305 306 306 306 308 309 311 316 317 308 301 301 304
236 234 234 235 238 240 239 238 237 236 236 237 238 238 239 240 239 236 235 236 237 237 238 239 239 238 238 238 238 239 240 241 241 242 243 244 245 245 245 246 248 249 251 253 254 255 256 257 258 261 264 267 269 273 275 277 279 281 282 284 286 287 288 289 289 290 290 290 290 291 293 295 297 297 298 301 302 303 303 304 305 308 313 314 306 301 301 304
240 237 234 233 235 238 240 240 239 238 237 237 238 239 240 241 240 238 238 238 238 238 238 239 239 239 239 239 239 240 241 242 243 243 244 245 246 246 247 248 250 251 253 255 257 258 259 260 261 263 266 268 271 273 275 278 280 281 282 283 284 285 286 287 287 288 288 288 288 289 290 292 293 293 294 296 298 299 300 302 303 306 309 310 305 299 299 303
243 240 237 235 234 236 238 240 240 240 239 239 239 240 241 241 241 240 239 239 239 238 239 240 240 240 240 239 240 241 243 243 244 245 246 247 247 247 248 250 251 253 255 256 258 260 261 263 263 265 268 270 272 274 276 278 280 281 282 283 284 285 285 285 286 286 286 287 287 287 288 290 291 290 290 292 295 297 298 299 301 303 305 307 304 297 297 302
242 241 240 238 236 235 236 238 240 241 241 241 241 240 239 240 241 241 241 240 240 239 240 241 241 241 241 241 241 242 243 244 245 246 246 247 248 248 249 251 252 254 256 257 260 261 263 265 265 267 270 272 273 276 277 279 279 280 282 282 284 284 284 284 285 285 286 286 286 286 286 288 289 287 288 290 293 294 295 297 299 300 302 305 301 296 298 303
241 241 240 240 238 236 235 236 238 240 241 242 243 242 240 240 241 242 242 241 241 240 240 242 242 242 241 241 242 242 244 244 245 246 246 247 249 249 250 252 253 255 256 258 260 262 263 265 267 268 270 272 274 275 277 278 279 280 281 282 283 283 284 284 284 285 286 286 286 286 285 288 287 284 286 289 291 292 294 296 297 297 301 304 300 297 301 304
242 240 239 239 240 239 237 236 237 238 240 242 244 243 241 240 241 242 242 242 241 241 241 242 243 242 242 242 243 243 244 245 245 246 247 248 249 249 250 251 253 255 256 258 260 262 264 265 267 268 270 271 273 274 276 278 280 281 282 283 283 283 283 283 283 285 285 286 287 287 287 290 286 282 284 287 288 290 292 294 295 297 301 303 299 298 302 304
242 241 239 238 240 240 238 237 236 237 239 241 243 244 242 240 240 242 243 242 241 241 241 242 242 243 242 242 242 244 245 245 246 247 248 249 250 250 250 251 253 254 256 258 260 262 263 265 267 268 269 271 273 274 276 278 280 282 283 283 284 283 283 284 284 284 285 286 288 288 290 293 285 281 283 284 286 289 290 291 294 296 301 302 298 298 301 302
243 242 240 239 238 239 240 238 237 236 238 239 241 242 243 241 240 242 243 243 242 241 241 242 242 243 243 242 242 243 245 245 246 247 248 249 250 251 252 253 254 255 257 259 260 262 264 265 267 268 270 271 273 274 275 276 278 280 282 284 284 283 284 284 284 285 285 285 288 288 290 295 287 281 282 284 286 288 289 291 293 297 302 301 296 297 299 298
244 242 241 240 238 238 239 239 237 236 236 238 240 241 242 241 241 241 242 244 243 242 242 242 242 243 243 242 242 243 244 245 246 247 248 248 250 252 254 255 256 257 258 259 261 262 264 265 266 268 269 271 272 273 274 275 277 279 282 283 283 284 284 283 284 285 284 285 289 288 288 295 288 280 281 284 286 287 288 290 293 297 301 297 293 295 296 295
244 242 241 241 240 238 238 239 239 238 237 238 239 240 241 242 241 241 243 244 244 244 243 243 243 243 243 243 242 242 243 245 246 247 247 248 249 252 254 256 257 258 259 260 261 262 263 264 265 266 267 269 271 272 273 274 276 278 280 282 283 284 284 284 285 284 284 287 289 285 286 293 284 278 280 281 282 284 286 288 292 296 296 292 291 293 293 292
244 243 241 241 241 240 239 239 240 239 238 238 238 238 239 240 240 241 242 244 244 244 243 243 244 244 243 243 243 242 242 244 246 246 247 248 249 251 254 256 257 259 259 260 260 261 261 262 264 265 266 269 270 270 272 273 275 277 280 282 283 284 284 285 285 284 286 287 284 283 289 289 277 277 279 278 280 282 283 286 291 294 291 289 290 292 292 291
242 242 242 241 242 241 240 240 240 240 239 239 239 238 238 240 241 241 242 243 244 244 243 243 244 245 244 243 243 243 243 244 245 246 247 247 248 250 253 255 257 258 259 259 259 259 260 262 263 265 266 268 269 270 271 273 275 278 280 282 283 283 283 284 284 286 288 284 281 287 291 282 272 273 276 277 280 281 282 287 292 292 289 289 291 291 291 291
241 242 242 242 242 242 241 240 240 241 241 240 240 239 239 240 241 241 241 242 243 244 244 244 244 245 246 246 245 245 244 244 244 245 246 246 248 249 251 253 254 256 257 258 258 258 260 261 263 265 266 267 268 270 272 273 275 277 280 282 283 282 282 283 285 287 285 282 283 287 283 279 277 270 269 273 275 278 283 289 289 288 288 290 290 290 289 287
241 241 241 242 242 242 241 241 241 241 241 241 241 240 239 239 240 240 240 242 243 244 244 244 244 245 247 248 247 246 245 244 244 244 245 246 246 247 248 249 251 253 254 255 256 258 259 261 263 265 267 268 269 271 272 273 274 276 279 282 284 284 284 285 285 286 284 282 285 284 277 278 283 274 268 268 270 276 283 285 284 285 286 287 287 286 285 284
241 240 240 241 242 242 242 241 241 241 241 241 240 239 239 238 238 239 239 240 241 242 242 243 244 245 246 247 248 247 245 244 244 244 244 245 244 244 244 246 248 250 251 252 254 256 258 260 263 266 267 268 269 271 272 272 273 275 278 282 284 286 287 287 287 288 286 285 286 283 278 280 285 278 272 271 275 280 281 280 282 284 283 283 283 282 281 280
241 240 240 240 241 242 242 241 240 240 240 241 240 240 239 238 237 237 238 239 240 242 242 243 244 245 245 245 247 247 246 244 244 243 243 242 242 242 242 244 245 246 248 250 252 254 257 260 262 264 266 267 268 270 271 272 273 273 275 281 284 286 287 288 290 291 289 286 285 281 280 283 284 279 276 277 279 279 278 280 283 283 280 281 281 279 278 278
241 241 240 240 239 240 241 241 240 240 240 240 241 241 241 240 240 239 239 239 240 241 242 242 243 243 243 243 244 246 246 244 242 242 241 240 240 241 242 243 244 245 247 249 251 254 256 259 261 264 265 265 267 269 270 272 272 272 274 280 283 285 287 289 292 292 290 286 282 280 282 284 280 277 278 280 279 278 281 284 284 281 280 279 278 277 277 276
241 241 241 241 239 238 239 240 240 240 239 240 241 242 242 242 241 241 239 238 238 240 241 241 242 243 242 243 245 246 244 242 240 241 241 241 241 241 242 243 244 245 247 249 251 253 255 258 261 263 265 266 266 267 269 270 269 271 275 278 280 285 288 289 290 291 291 288 283 281 282 280 277 277 278 277 278 281 284 284 282 280 280 279 277 277 277 277
Height
5829 5829 5828 5828 5828 5829 5830 5831 5830 5830 5831 5832 5832 5833 5834 5834 5835 5835 5836 5837 5838 5839 5840 5842 5844 5845 5846 5847 5847 5848 5850 5851 5851 5851 5852 5853 5855 5856 5857 5857 5858 5858 5859 5859 5860 5860 5861 5861 5862 5862 5862 5862 5863 5865 5865 5865 5865 5865 5865 5864 5864 5864 5864 5863 5863 5863 5862 5862 5862 5862 5862 5862 5861 5861 5860 5859 5858 5857 5857 5856 5856 5855 5854 5853 5852 5851 5851 5850
5831 5832 5832 5832 5831 5831 5832 5834 5835 5834 5834 5834 5836 5837 5837 5838 5839 5840 5840 5841 5841 5843 5844 5844 5846 5848 5849 5850 5850 5851 5853 5854 5855 5854 5855 5856 5857 5858 5858 5859 5860 5860 5860 5860 5861 5861 5862 5862 5863 5863 5864 5865 5866 5866 5866 5866 5866 5865 5865 5864 5864 5864 5864 5864 5863 5863 5864 5864 5864 5863 5863 5863 5862 5861 5860 5860 5859 5858 5857 5856 5855 5854 5853 5852 5851 5850 5850 5849
5833 5834 5835 5835 5835 5834 5834 5836 5838 5839 5838 5838 5839 5840 5841 5842 5842 5843 5844 5845 5845 5846 5846 5847 5849 5850 5851 5852 5853 5854 5855 5856 5857 5857 5857 5858 5858 5859 5860 5860 5861 5861 5861 5862 5862 5862 5862 5863 5864 5865 5866 5867 5867 5868 5868 5867 5867 5866 5865 5865 5865 5865 5865 5864 5864 5864 5865 5865 5864 5864 5864 5863 5862 5861 5861 5860 5859 5858 5857 5855 5854 5853 5852 5851 5850 5849 5849 5848
5836 5836 5837 5837 5838 5837 5837 5837 5839 5841 5842 5842 5843 5843 5844 5845 5846 5847 5847 5848 5848 5849 5849 5850 5851 5852 5853 5854 5855 5856 5857 5858 5859 5859 5859 5859 5860 5861 5861 5862 5862 5862 5863 5863 5863 5863 5863 5864 5865 5866 5867 5868 5869 5869 5869 5868 5867 5866 5866 5866 5865 5865 5865 5865 5865 5865 5865 5865 5865 5864 5864 5863 5862 5862 5861 5860 5859 5858 5856 5855 5853 5852 5851 5850 5849 5848 5848 5848
5838 5838 5838 5839 5840 5840 5840 5840 5840 5842 5844 5845 5846 5846 5847 5848 5848 5849 5850 5851 5851 5851 5851 5852 5853 5854 5855 5856 5857 5858 5858 5860 5860 5861 5861 5861 5861 5862 5863 5863 5863 5863 5864 5864 5864 5864 5865 5866 5867 5868 5869 5870 5870 5870 5869 5867 5867 5867 5867 5866 5865 5865 5865 5866 5866 5866 5866 5865 5865 5864 5864 5863 5862 5862 5861 5859 5858 5857 5855 5854 5852 5851 5850 5849 5848 5848 5847 5847
5840 5840 5840 5840 5841 5842 5843 5843 5843 5843 5845 5847 5848 5849 5850 5850 5851 5852 5853 5853 5853 5853 5853 5854 5855 5856 5857 5858 5859 5859 5860 5861 5862 5862 5862 5863 5863 5863 5864 5864 5864 5865 5865 5864 5864 5865 5866 5867 5868 5869 5870 5871 5871 5870 5869 5868 5867 5867 5867 5866 5866 5866 5866 5866 5866 5866 5866 5865 5865 5864 5863 5863 5862 5861 5860 5858 5857 5856 5854 5853 5852 5850 5850 5849 5848 5847 5847 5846
5842 5841 5841 5842 5843 5843 5844 5845 5846 5846 5846 5848 5849 5851 5852 5852 5853 5854 5855 5855 5856 5856 5856 5856 5857 5858 5858 5859 5860 5861 5862 5862 5863 5863 5863 5864 5864 5864 5865 5865 5865 5865 5865 5865 5866 5867 5867 5868 5869 5869 5870 5871 5870 5870 5869 5869 5868 5868 5867 5867 5867 5867 5867 5867 5867 5866 5866 5865 5864 5863 5863 5862 5861 5860 5858 5857 5856 5854 5853 5852 5851 5850 5849 5848 5848 5847 5846 5846
5843 5843 5843 5843 5844 5845 5845 5846 5847 5848 5848 5849 5850 5851 5853 5854 5854 5855 5856 5857 5858 5858 5858 5858 5859 5859 5860 5860 5861 5862 5863 5863 5864 5864 5864 5865 5865 5865 5865 5866 5866 5866 5866 5866 5867 5868 5868 5869 5869 5870 5870 5870 5870 5870 5870 5870 5869 5869 5869 5868 5868 5868 5868 5867 5867 5866 5865 5864 5864 5863 5862 5861 5860 5858 5857 5856 5855 5854 5853 5851 5850 5849 5849 5848 5847 5847 5846 5845
5844 5844 5844 5844 5845 5846 5846 5847 5848 5849 5850 5850 5851 5852 5853 5854 5855 5856 5857 5858 5859 5860 5860 5861 5861 5861 5862 5862 5862 5863 5864 5864 5865 5865 5866 5866 5866 5866 5866 5867 5867 5867 5867 5868 5868 5869 5869 5870 5870 5870 5871 5871 5871 5871 5871 5871 5870 5870 5870 5869 5869 5868 5867 5867 5866 5865 5864 5864 5863 5862 5861 5860 5858 5857 5856 5855 5854 5853 5852 5851 5850 5849 5848 5847 5846 5846 5845 5844
5844 5845 5845 5845 5846 5846 5847 5848 5849 5850 5851 5851 5852 5852 5853 5854 5856 5857 5858 5859 5860 5861 5862 5862 5862 5863 5863 5864 5864 5864 5865 5866 5866 5867 5867 5867 5867 5867 5867 5868 5868 5868 5869 5869 5870 5870 5870 5870 5871 5871 5872 5872 5872 5872 5872 5872 5871 5871 5870 5869 5868 5867 5867 5866 5865 5865 5864 5863 5862 5861 5860 5858 5857 5856 5855 5854 5853 5852 5851 5850 5849 5848 5847 5846 5846 5845 5844 5843
5844 5845 5846 5846 5846 5847 5848 5849 5850 5851 5852 5852 5853 5853 5854 5855 5856 5857 5858 5859 5860 5861 5863 5863 5864 5864 5865 5865 5865 5866 5866 5867 5867 5868 5868 5868 5868 5869 5868 5869 5869 5869 5870 5871 5871 5871 5871 5871 5872 5873 5873 5873 5873 5873 5872 5872 5872 5871 5870 5869 5868 5867 5867 5866 5865 5865 5864 5863 5861 5860 5858 5857 5856 5855 5854 5853 5852 5851 5850 5849 5848 5847 5846 5846 5845 5844 5843 5842
5844 5845 5846 5846 5847 5847 5848 5849 5850 5851 5852 5853 5854 5854 5854 5855 5856 5857 5858 5859 5861 5862 5863 5864 5865 5865 5866 5866 5866 5866 5867 5867 5868 5868 5869 5869 5869 5869 5869 5869 5870 5870 5871 5871 5872 5872 5872 5872 5873 5873 5873 5873 5873 5873 5873 5872 5872 5871 5870 5870 5869 5868 5867 5866 5865 5864 5863 5862 5860 5859 5858 5857 5856 5855 5854 5853 5851 5850 5850 5849 5847 5846 5846 5845 5845 5844 5843 5842
5844 5845 5846 5847 5847 5848 5848 5849 5850 5851 5852 5853 5854 5855 5855 5856 5856 5857 5858 5859 5860 5861 5863 5864 5865 5866 5866 5866 5867 5867 5867 5868 5868 5869 5869 5870 5870 5870 5870 5870 5871 5871 5871 5872 5872 5872 5873 5873 5874 5874 5873 5873 5873 5873 5873 5873 5872 5872 5871 5870 5869 5868 5867 5866 5864 5863 5862 5861 5860 5859 5858 5857 5856 5855 5854 5853 5851 5850 5849 5848 5847 5846 5845 5844 5844 5843 5843 5842
5844 5845 5846 5847 5847 5848 5848 5849 5850 5851 5852 5853 5854 5855 5855 5856 5857 5857 5858 5859 5860 5861 5862 5863 5865 5865 5866 5867 5867 5867 5868 5868 5868 5869 5870 5870 5870 5871 5871 5871 5871 5871 5872 5872 5873 5873 5873 5874 5874 5874 5873 5873 5873 5873 5873 5873 5873 5872 5871 5871 5869 5868 5867 5865 5864 5863 5862 5861 5860 5859 5858 5857 5856 5855 5854 5853 5852 5851 5849 5848 5847 5845 5844 5843 5842 5842 5841 5841
5844 5844 5845 5846 5847 5848 5848 5849 5849 5850 5851 5852 5853 5854 5855 5856 5857 5858 5858 5859 5860 5861 5862 5863 5864 5864 5865 5866 5866 5867 5867 5868 5868 5869 5869 5870 5870 5870 5871 5871 5871 5872 5872 5873 5873 5873 5873 5874 5874 5874 5874 5874 5874 5874 5874 5873 5873 5872 5871 5870 5869 5867 5866 5865 5863 5862 5862 5861 5861 5860 5859 5857 5856 5855 5854 5853 5852 5851 5849 5848 5846 5845 5844 5843 5842 5841 5840 5839
5843 5844 5845 5846 5847 5848 5848 5849 5849 5850 5851 5852 5853 5854 5855 5856 5857 5858 5858 5859 5860 5860 5861 5862 5863 5864 5864 5865 5865 5866 5867 5867 5868 5868 5869 5869 5870 5870 5870 5871 5871 5872 5872 5873 5873 5873 5873 5874 5874 5874 5874 5874 5874 5874 5874 5873 5873 5872 5871 5870 5869 5867 5866 5864 5863 5863 5862 5862 5861 5860 5859 5858 5857 5856 5854 5853 5852 5851 5849 5848 5847 5845 5844 5842 5841 5840 5839 5838
5843 5843 5844 5845 5846 5847 5848 5849 5849 5850 5850 5851 5852 5853 5854 5855 5856 5857 5858 5859 5859 5860 5861 5862 5862 5863 5864 5864 5865 5865 5866 5867 5867 5868 5868 5869 5869 5870 5870 5871 5871 5872 5872 5872 5873 5873 5873 5874 5874 5874 5874 5874 5874 5874 5873 5873 5872 5872 5871 5870 5868 5867 5866 5865 5864 5863 5862 5862 5861 5860 5859 5858 5857 5856 5855 5854 5852 5851 5850 5848 5847 5845 5844 5842 5840 5839 5838 5837
5843 5843 5844 5844 5845 5846 5847 5848 5849 5850 5850 5851 5851 5852 5853 5854 5855 5856 5857 5858 5859 5859 5860 5861 5862 5863 5863 5864 5864 5865 5865 5866 5867 5867 5868 5869 5869 5870 5870 5870 5871 5871 5872 5872 5872 5873 5873 5874 5874 5874 5874 5874 5874 5873 5873 5872 5872 5871 5870 5869 5868 5867 5866 5865 5864 5864 5863 5862 5861 5860 5859 5858 5857 5856 5854 5853 5852 5851 5849 5848 5847 5845 5844 5842 5840 5839 5837 5836
5842 5842 5843 5843 5844 5844 5845 5846 5848 5849 5850 5850 5851 5851 5852 5853 5854 5855 5856 5856 5857 5859 5859 5860 5861 5862 5862 5863 5863 5864 5865 5865 5866 5867 5868 5868 5869 5869 5870 5870 5871 5871 5872 5872 5872 5873 5873 5873 5874 5874 5874 5874 5873 5873 5872 5872 5871 5870 5870 5869 5868 5867 5867 5866 5865 5864 5863 5862 5860 5860 5859 5857 5856 5855 5854 5853 5852 5850 5849 5848 5847 5845 5844 5842 5840 5838 5836 5835
5840 5841 5842 5842 5843 5843 5844 5844 5846 5847 5849 5850 5850 5851 5852 5852 5853 5854 5855 5855 5856 5857 5858 5859 5860 5861 5862 5862 5863 5863 5864 5865 5866 5867 5867 5868 5868 5869 5869 5870 5870 5871 5871 5872 5872 5872 5873 5873 5873 5873 5873 5873 5872 5872 5872 5871 5871 5870 5870 5869 5868 5867 5866 5865 5865 5864 5862 5861 5860 5859 5858 5857 5856 5855 5854 5852 5851 5850 5849 5847 5846 5844 5843 5842 5840 5837 5836 5834
5839 5840 5841 5841 5842 5842 5842 5843 5844 5845 5847 5848 5849 5850 5850 5851 5852 5852 5853 5855 5855 5856 5857 5858 5859 5860 5861 5862 5862 5863 5864 5864 5865 5866 5867 5867 5868 5868 5869 5869 5870 5870 5871 5871 5872 5872 5872 5872 5872 5872 5872 5872 5871 5871 5871 5871 5870 5870 5869 5868 5868 5867 5866 5865 5864 5864 5862 5861 5859 5858 5858 5857 5856 5855 5853 5852 5851 5849 5848 5847 5846 5844 5842 5841 5839 5837 5835 5834
5836 5838 5839 5840 5840 5840 5841 5841 5842 5843 5845 5846 5847 5848 5849 5850 5850 5851 5852 5853 5854 5855 5856 5857 5858 5859 5860 5861 5862 5862 5863 5864 5865 5865 5866 5867 5867 5868 5868 5869 5869 5870 5870 5870 5871 5871 5871 5871 5871 5871 5871 5871 5870 5870 5870 5870 5869 5869 5868 5868 5867 5866 5865 5864 5863 5863 5862 5860 5858 5857 5857 5856 5855 5854 5853 5851 5850 5849 5847 5846 5845 5843 5842 5840 5838 5837 5835 5833
5834 5835 5837 5838 5838 5838 5839 5839 5840 5841 5842 5844 5845 5846 5847 5848 5849 5849 5850 5851 5852 5854 5855 5856 5857 5858 5859 5860 5861 5861 5862 5863 5864 5864 5865 5866 5866 5867 5867 5868 5868 5869 5869 5869 5869 5870 5870 5870 5870 5870 5870 5870 5869 5869 5869 5869 5868 5868 5867 5867 5866 5866 5865 5864 5862 5861 5861 5860 5858 5856 5856 5855 5854 5853 5852 5850 5849 5848 5846 5845 5844 5842 5841 5839 5837 5836 5834 5832
5831 5833 5834 5835 5836 5836 5837 5837 5838 5838 5840 5841 5842 5844 5845 5846 5847 5848 5849 5850 5851 5852 5853 5854 5855 5856 5857 5858 5859 5860 5861 5862 5862 5863 5864 5864 5865 5865 5866 5866 5867 5867 5867 5868 5868 5868 5868 5869 5869 5869 5869 5869 5868 5868 5868 5868 5867 5867 5866 5866 5865 5864 5864 5863 5862 5861 5860 5859 5857 5855 5854 5854 5853 5852 5850 5849 5848 5847 5845 5843 5842 5841 5839 5838 5836 5834 5832 5831
5829 5830 5831 5833 5833 5834 5834 5835 5835 5836 5837 5838 5839 5841 5843 5844 5846 5847 5847 5848 5849 5850 5851 5852 5853 5855 5856 5857 5858 5859 5859 5860 5861 5862 5862 5863 5863 5864 5864 5865 5865 5866 5866 5866 5867 5867 5867 5867 5867 5867 5867 5867 5867 5867 5867 5866 5866 5865 5865 5864 5864 5863 5862 5862 5861 5859 5858 5857 5856 5855 5853 5852 5852 5851 5849 5847 5846 5845 5844 5842 5840 5839 5837 5836 5834 5832 5831 5829
5826 5827 5829 5830 5831 5831 5832 5833 5833 5834 5835 5836 5837 5838 5840 5842 5843 5844 5845 5846 5846 5847 5849 5850 5851 5852 5854 5855 5856 5857 5858 5858 5859 5860 5861 5861 5862 5862 5863 5863 5864 5864 5864 5865 5865 5865 5865 5866 5866 5866 5866 5866 5865 5865 5865 5865 5864 5864 5863 5863 5862 5862 5861 5860 5859 5858 5857 5856 5855 5854 5852 5851 5850 5849 5848 5846 5845 5844 5842 5841 5839 5838 5836 5834 5833 5831 5829 5827
5823 5825 5826 5827 5828 5828 5829 5830 5831 5832 5833 5833 5834 5836 5837 5839 5840 5841 5842 5843 5844 5845 5846 5848 5849 5851 5852 5853 5854 5855 5856 5856 5857 5858 5859 5859 5860 5860 5861 5862 5862 5862 5863 5863 5863 5864 5864 5864 5864 5864 5864 5864 5864 5864 5863 5863 5863 5862 5862 5861 5861 5860 5859 5859 5858 5857 5855 5854 5853 5852 5851 5850 5848 5847 5846 5844 5843 5842 5841 5839 5838 5836 5834 5833 5831 5829 5827 5826
5820 5821 5823 5824 5824 5825 5826 5827 5828 5829 5830 5831 5831 5832 5834 5835 5837 5838 5839 5839 5841 5843 5844 5846 5847 5848 5850 5851 5851 5852 5853 5854 5855 5856 5856 5857 5858 5858 5859 5859 5860 5860 5861 5861 5861 5862 5862 5862 5862 5862 5862 5862 5862 5862 5861 5861 5861 5860 5860 5859 5859 5858 5858 5857 5856 5855 5854 5852 5851 5850 5849 5848 5847 5846 5845 5843 5841 5840 5838 5837 5836 5834 5833 5831 5829 5827 5825 5823
5817 5818 5819 5821 5821 5822 5823 5824 5825 5826 5827 5828 5828 5829 5830 5832 5833 5835 5835 5836 5838 5840 5842 5844 5845 5846 5847 5848 5849 5850 5851 5852 5853 5853 5854 5855 5855 5856 5857 5857 5858 5858 5859 5859 5859 5860 5860 5860 5860 5860 5860 5860 5860 5860 5859 5859 5859 5858 5858 5857 5857 5856 5855 5855 5854 5853 5852 5851 5850 5848 5846 5845 5845 5844 5843 5841 5839 5837 5836 5835 5834 5833 5831 5829 5827 5825 5822 5820
5813 5814 5815 5817 5818 5818 5819 5820 5822 5823 5824 5825 5825 5826 5827 5828 5829 5830 5831 5833 5835 5838 5840 5842 5843 5844 5845 5846 5847 5848 5849 5850 5850 5851 5851 5852 5853 5853 5854 5855 5855 5856 5856 5857 5857 5857 5858 5858 5858 5858 5858 5858 5858 5858 5857 5857 5857 5856 5856 5855 5854 5854 5853 5852 5852 5851 5850 5850 5848 5847 5845 5843 5842 5841 5841 5840 5838 5836 5834 5833 5832 5830 5829 5827 5825 5823 5820 5818
5810 5811 5811 5813 5814 5815 5816 5817 5818 5819 5820 5821 5822 5823 5823 5824 5824 5824 5827 5831 5833 5834 5837 5839 5840 5842 5842 5843 5844 5845 5846 5847 5848 5848 5849 5849 5850 5851 5852 5852 5853 5853 5854 5854 5855 5855 5855 5855 5856 5856 5856 5856 5856 5855 5855 5855 5854 5854 5853 5853 5852 5851 5850 5849 5849 5848 5848 5847 5846 5845 5843 5841 5839 5838 5838 5837 5835 5834 5832 5831 5829 5828 5827 5825 5822 5820 5818 5816
5805 5806 5808 5809 5810 5811 5812 5813 5814 5815 5816 5817 5818 5819 5820 5819 5819 5821 5827 5830 5829 5830 5834 5836 5837 5839 5839 5840 5841 5842 5843 5844 5845 5845 5846 5847 5847 5848 5849 5849 5850 5850 5851 5852 5852 5852 5852 5853 5853 5853 5853 5853 5853 5853 5853 5852 5852 5851 5851 5850 5849 5848 5847 5846 5846 5846 5845 5845 5844 5842 5841 5839 5837 5836 5835 5834 5832 5830 5829 5828 5827 5825 5824 5823 5820 5817 5816 5814
5800 5802 5804 5805 5806 5807 5808 5809 5810 5811 5812 5813 5813 5814 5815 5813 5815 5821 5826 5826 5825 5827 5831 5832 5834 5835 5836 5837 5838 5839 5840 5841 5841 5842 5843 5843 5844 5845 5846 5847 5847 5848 5848 5849 5849 5849 5849 5850 5850 5851 5851 5851 5850 5850 5850 5849 5849 5848 5848 5847 5846 5845 5843 5842 5842 5842 5842 5842 5842 5840 5838 5837 5835 5833 5832 5830 5829 5827 5825 5824 5823 5823 5822 5820 5817 5814 5813 5812
5795 5797 5799 5801 5802 5802 5803 5804 5805 5806 5807 5808 5808 5809 5808 5808 5814 5821 5822 5821 5822 5824 5826 5828 5829 5831 5832 5834 5835 5835 5836 5837 5838 5839 5839 5840 5841 5842 5843 5844 5844 5845 5845 5845 5845 5846 5846 5847 5848 5848 5848 5848 5848 5847 5847 5846 5846 5845 5845 5844 5843 5842 5840 5839 5838 5838 5837 5838 5838 5837 5835 5834 5833 5830 5829 5828 5826 5824 5822 5821 5820 5820 5819 5817 5814 5811 5809 5809
5791 5792 5793 5795 5797 5797 5798 5799 5800 5802 5802 5803 5803 5802 5801 5806 5814 5818 5818 5818 5819 5820 5822 5823 5825 5826 5828 5830 5831 5832 5833 5833 5834 5835 5836 5837 5838 5839 5840 5841 5841 5841 5842 5842 5842 5842 5842 5844 5845 5845 5844 5844 5844 5844 5844 5843 5842 5841 5841 5840 5839 5838 5837 5835 5834 5834 5833 5832 5833 5834 5833 5832 5830 5827 5826 5825 5823 5821 5820 5819 5818 5816 5816 5814 5812 5808 5806 5806
5786 5787 5788 5790 5791 5792 5793 5794 5795 5796 5797 5797 5796 5795 5799 5807 5811 5812 5814 5815 5816 5817 5818 5819 5820 5822 5824 5825 5827 5828 5829 5829 5830 5831 5832 5833 5834 5836 5837 5838 5838 5838 5838 5838 5838 5838 5839 5840 5841 5841 5841 5841 5841 5840 5840 5839 5839 5838 5837 5836 5835 5834 5833 5832 5830 5830 5829 5827 5828 5830 5829 5829 5827 5824 5823 5822 5820 5819 5817 5816 5814 5813 5812 5811 5809 5805 5803 5802
5780 5782 5783 5785 5785 5786 5788 5789 5790 5790 5791 5790 5788 5791 5799 5804 5805 5807 5809 5811 5812 5814 5814 5815 5816 5818 5819 5821 5823 5824 5824 5825 5827 5827 5829 5829 5830 5832 5834 5834 5834 5835 5835 5835 5834 5835 5835 5835 5837 5837 5837 5837 5837 5836 5836 5836 5835 5834 5833 5832 5831 5830 5829 5828 5826 5825 5824 5822 5823 5824 5825 5826 5823 5820 5819 5818 5817 5815 5814 5813 5811 5810 5809 5807 5805 5802 5800 5799
5773 5776 5778 5780 5779 5780 5782 5783 5783 5784 5785 5783 5783 5789 5796 5798 5800 5802 5804 5806 5808 5809 5810 5811 5813 5814 5815 5817 5819 5820 5819 5821 5823 5823 5824 5825 5825 5829 5830 5830 5830 5830 5831 5831 5830 5831 5832 5831 5832 5833 5833 5833 5833 5832 5832 5831 5830 5829 5829 5828 5827 5825 5824 5824 5822 5820 5819 5818 5817 5818 5820 5822 5820 5816 5814 5814 5813 5812 5810 5809 5808 5806 5805 5804 5802 5799 5797 5796
5766 5769 5772 5774 5774 5774 5775 5777 5777 5778 5778 5777 5779 5786 5791 5794 5796 5797 5798 5801 5803 5805 5806 5807 5808 5810 5812 5813 5814 5815 5815 5817 5818 5819 5820 5821 5822 5825 5826 5825 5826 5826 5826 5827 5826 5827 5828 5826 5828 5830 5829 5828 5828 5827 5827 5826 5826 5825 5824 5824 5823 5821 5820 5819 5818 5817 5815 5813 5812 5812 5815 5819 5816 5811 5810 5810 5809 5808 5806 5805 5804 5802 5802 5801 5798 5795 5794 5792
5759 5762 5765 5768 5768 5768 5769 5770 5770 5771 5771 5773 5776 5782 5786 5790 5791 5792 5793 5795 5798 5800 5801 5803 5804 5805 5808 5809 5810 5811 5812 5813 5814 5815 5816 5817 5819 5821 5821 5821 5822 5822 5822 5822 5822 5822 5823 5822 5823 5825 5825 5824 5824 5823 5823 5822 5821 5821 5820 5819 5818 5817 5816 5814 5813 5813 5812 5809 5808 5807 5810 5815 5813 5807 5806 5806 5804 5803 5802 5801 5800 5798 5798 5797 5794 5792 5790 5789
5751 5754 5758 5761 5761 5761 5763 5763 5764 5765 5766 5768 5772 5776 5781 5784 5786 5787 5788 5789 5791 5794 5796 5797 5799 5801 5803 5805 5806 5807 5807 5808 5810 5810 5812 5814 5815 5816 5817 5817 5817 5817 5817 5818 5818 5818 5818 5819 5820 5821 5821 5820 5820 5819 5819 5819 5817 5817 5816 5815 5814 5813 5812 5810 5809 5809 5808 5806 5805 5803 5805 5810 5809 5803 5802 5801 5800 5799 5798 5797 5796 5794 5794 5793 5790 5788 5787 5786
5743 5747 5751 5753 5753 5754 5755 5755 5758 5759 5760 5763 5767 5771 5775 5778 5780 5781 5782 5783 5785 5788 5790 5791 5793 5795 5797 5799 5801 5802 5802 5803 5805 5806 5808 5810 5811 5812 5813 5813 5813 5813 5813 5814 5814 5813 5814 5815 5816 5817 5817 5817 5816 5816 5815 5814 5813 5813 5812 5812 5811 5809 5808 5806 5805 5805 5804 5803 5802 5800 5801 5806 5805 5799 5797 5797 5796 5795 5794 5793 5792 5790 5790 5789 5786 5785 5784 5783
5736 5740 5742 5743 5744 5745 5746 5747 5750 5753 5755 5758 5762 5765 5768 5771 5774 5775 5776 5778 5780 5782 5784 5786 5788 5790 5792 5794 5796 5797 5797 5798 5800 5802 5804 5806 5807 5808 5809 5809 5809 5809 5809 5809 5810 5809 5809 5810 5811 5812 5813 5812 5812 5812 5811 5811 5810 5809 5809 5808 5807 5805 5804 5802 5801 5801 5800 5799 5800 5797 5797 5802 5800 5795 5794 5793 5791 5790 5789 5789 5788 5787 5786 5785 5783 5782 5781 5779
5728 5731 5733 5734 5736 5737 5738 5741 5745 5748 5751 5753 5756 5759 5761 5764 5767 5769 5771 5773 5775 5777 5779 5780 5782 5784 5786 5788 5790 5791 5792 5793 5795 5797 5799 5800 5802 5803 5804 5804 5804 5804 5805 5805 5805 5805 5805 5805 5807 5808 5808 5808 5808 5807 5807 5807 5806 5805 5805 5804 5803 5802 5800 5798 5798 5796 5795 5796 5797 5793 5794 5799 5796 5791 5791 5790 5787 5786 5785 5784 5784 5783 5783 5781 5779 5778 5777 5776
5719 5722 5725 5726 5727 5729 5732 5736 5739 5741 5744 5747 5749 5751 5754 5756 5760 5764 5766 5768 5769 5771 5773 5775 5776 5778 5780 5782 5784 5786 5787 5789 5791 5792 5793 5795 5797 5798 5798 5799 5799 5800 5800 5800 5800 5800 5800 5801 5802 5803 5803 5804 5804 5803 5803 5803 5802 5801 5801 5800 5799 5798 5796 5795 5793 5792 5792 5792 5791 5789 5791 5794 5793 5789 5787 5785 5783 5782 5781 5780 5780 5780 5779 5777 5776 5775 5774 5773
5710 5713 5717 5719 5719 5721 5726 5730 5731 5733 5737 5740 5741 5744 5747 5750 5754 5758 5761 5762 5763 5764 5767 5770 5771 5772 5774 5776 5778 5781 5783 5784 5785 5786 5788 5790 5792 5793 5793 5794 5794 5794 5795 5795 5795 5795 5795 5797 5798 5798 5799 5799 5799 5798 5798 5799 5797 5797 5797 5796 5795 5794 5792 5790 5789 5789 5788 5786 5786 5788 5787 5787 5789 5788 5784 5781 5780 5778 5777 5777 5776 5776 5775 5773 5772 5771 5770 5769
5701 5705 5709 5711 5710 5713 5718 5722 5724 5727 5730 5733 5734 5738 5742 5745 5748 5751 5754 5755 5756 5759 5762 5764 5765 5766 5768 5771 5774 5776 5777 5779 5779 5781 5783 5785 5787 5787 5787 5788 5788 5789 5790 5790 5790 5790 5790 5792 5793 5794 5794 5795 5794 5793 5794 5794 5793 5793 5793 5792 5791 5789 5788 5787 5785 5785 5783 5780 5782 5786 5783 5780 5786 5787 5782 5779 5776 5773 5773 5773 5773 5772 5770 5769 5768 5767 5766 5765
5692 5698 5701 5701 5702 5706 5710 5715 5718 5720 5722 5724 5727 5730 5734 5738 5740 5743 5747 5749 5751 5753 5756 5757 5759 5762 5765 5767 5769 5769 5771 5772 5773 5776 5779 5781 5781 5781 5781 5782 5782 5784 5784 5784 5784 5784 5785 5787 5789 5789 5790 5790 5789 5789 5789 5789 5788 5789 5789 5788 5787 5785 5783 5782 5782 5780 5778 5776 5779 5782 5778 5777 5782 5782 5778 5776 5773 5770 5771 5770 5769 5768 5766 5765 5764 5764 5762 5761
5683 5689 5692 5693 5695 5698 5702 5707 5709 5710 5713 5715 5717 5721 5725 5729 5732 5736 5740 5742 5744 5746 5748 5750 5755 5758 5760 5762 5763 5762 5764 5766 5769 5772 5775 5775 5774 5774 5774 5775 5776 5778 5778 5778 5779 5779 5780 5782 5784 5784 5785 5785 5784 5784 5784 5784 5784 5784 5785 5785 5783 5780 5778 5778 5778 5776 5774 5773 5775 5775 5773 5775 5777 5775 5773 5772 5769 5768 5768 5766 5765 5765 5763 5761 5761 5760 5759 5757
5675 5680 5683 5683 5686 5690 5693 5696 5699 5702 5705 5706 5708 5713 5718 5721 5725 5729 5732 5735 5738 5740 5743 5746 5751 5753 5755 5756 5755 5755 5758 5762 5765 5768 5768 5767 5766 5767 5768 5769 5770 5771 5772 5773 5773 5774 5775 5777 5779 5780 5779 5780 5780 5779 5778 5778 5778 5779 5782 5782 5779 5776 5775 5774 5773 5772 5769 5769 5771 5769 5769 5773 5773 5768 5767 5768 5766 5764 5764 5762 5762 5761 5759 5758 5757 5756 5755 5754
5667 5670 5673 5672 5676 5681 5683 5686 5690 5692 5695 5698 5702 5707 5711 5715 5721 5724 5726 5730 5733 5734 5737 5741 5743 5745 5747 5747 5747 5750 5754 5758 5760 5760 5759 5758 5759 5761 5761 5763 5764 5765 5766 5767 5768 5769 5770 5771 5774 5775 5773 5774 5776 5774 5773 5773 5772 5774 5779 5779 5774 5772 5771 5770 5769 5768 5766 5765 5766 5765 5766 5768 5767 5763 5763 5763 5761 5760 5759 5759 5758 5756 5755 5754 5753 5752 5751 5750
5658 5660 5662 5662 5665 5670 5674 5678 5681 5682 5687 5694 5697 5700 5704 5709 5714 5716 5718 5722 5725 5727 5731 5734 5736 5738 5739 5741 5743 5746 5749 5751 5751 5750 5750 5751 5753 5755 5755 5756 5758 5759 5760 5761 5762 5764 5765 5766 5769 5769 5766 5768 5770 5769 5768 5767 5765 5769 5775 5774 5770 5769 5767 5765 5764 5764 5762 5760 5760 5761 5763 5763 5761 5760 5759 5758 5756 5756 5755 5754 5753 5752 5751 5750 5749 5749 5748 5747